User: anonymous   Login
Location: Unspecified
(0.0000°N, 0.0000°E)
Time: 01:50:33
(UTC+00:00)
Language:

TIANMU-1 18 - Orbit

View from above orbital plane
View from above orbital plane
View from above satellite
View from above satellite

Ground track
Ground track

The orbit is defined by the following mean orbital elements,

1 58703U          26145.63673990 +.00000000 +00000-0 +19163-3 0 00000
2 58703  97.4666 331.8075 0005617  78.6433 281.5436 15.26738159    06
Epoch (UTC): 25 May 2026 15:16:54
Eccentricity: 0.0005617
inclination: 97.4666°
perigee height: 482 km
apogee height: 489 km
right ascension of ascending node: 331.8075°
argument of perigee: 78.6433°
revolutions per day: 15.26738159
mean anomaly at epoch: 281.5436°

The dashed part of the orbit path shows where the satellite is in the earth's shadow,  

DLR